Location: Hylvaty SDH
(49.9612°N, 16.4057°E)
Time: 18:34:27
(UTC+02:00)

Courier 1B - All Passes

Search period start: 09 August 2020 00:00
Search period end: 19 August 2020 00:00
Orbit: 962 x 1209 km, 28.3° (Epoch: 09 August)

Date Brightness Start Highest point End Pass type
(mag) Time Alt. Az. Time Alt. Az. Time Alt. Az.
09 Aug - 21:56:45 10° SSW 21:58:09 11° S 21:59:32 10° S visible
10 Aug - 21:03:03 10° SSW 21:04:44 11° S 21:06:25 10° SSE visible
11 Aug - 20:09:45 10° S 20:11:19 11° S 20:12:52 10° SSE daylight
11 Aug - 22:03:31 10° SSW 22:03:50 10° S 22:04:10 10° S visible
12 Aug - 19:17:11 10° S 19:17:53 10° S 19:18:34 10° SSE daylight
12 Aug - 21:08:30 10° SSW 21:10:26 11° S 21:12:20 10° S visible
13 Aug - 20:14:33 10° SSW 20:17:01 12° S 20:19:25 10° SSE daylight
14 Aug - 19:20:56 10° SSW 19:23:33 12° S 19:26:07 10° SSE daylight
15 Aug - 18:27:37 10° SSW 18:30:04 12° S 18:32:29 10° SSE daylight
15 Aug - 20:20:30 10° SSW 20:22:40 11° S 20:24:49 10° S daylight
16 Aug - 17:34:47 10° S 17:36:35 11° S 17:38:23 10° SSE daylight
16 Aug - 19:26:21 10° SSW 19:29:13 12° S 19:32:01 10° SSE daylight
17 Aug - 18:32:34 10° SSW 18:35:44 13° S 18:38:51 10° SSE daylight
18 Aug - 17:39:03 10° SSW 17:42:13 13° S 17:45:22 10° SSE daylight
18 Aug - 19:32:43 10° SSW 19:34:51 11° SSW 19:36:58 10° S daylight
